TimePDT,TemperatureF,Dew PointF,Humidity,Sea Level PressureIn,VisibilityMPH,Wind Direction,Wind SpeedMPH,Gust SpeedMPH,PrecipitationIn,Events,Conditions,WindDirDegrees,DateUTC
12:53 AM,64.9,37.0,36,29.82,10.0,WSW,4.6,-,N/A,,Clear,240,2012-05-11 07:53:00
1:53 AM,66.0,39.9,38,29.80,10.0,WSW,16.1,-,N/A,,Clear,250,2012-05-11 08:53:00
2:53 AM,64.0,39.0,40,29.79,10.0,West,18.4,-,N/A,,Clear,260,2012-05-11 09:53:00
3:53 AM,62.1,37.9,41,29.81,10.0,WSW,8.1,-,N/A,,Clear,240,2012-05-11 10:53:00
4:53 AM,61.0,37.9,42,29.81,10.0,SW,6.9,-,N/A,,Clear,220,2012-05-11 11:53:00
5:53 AM,57.9,36.0,44,29.83,10.0,SSW,6.9,-,N/A,,Clear,210,2012-05-11 12:53:00
6:53 AM,63.0,37.0,38,29.85,10.0,SSW,5.8,-,N/A,,Clear,200,2012-05-11 13:53:00
7:53 AM,69.1,32.0,25,29.86,10.0,Variable,4.6,-,N/A,,Clear,0,2012-05-11 14:53:00
8:53 AM,73.9,30.9,21,29.87,10.0,WNW,4.6,-,N/A,,Clear,290,2012-05-11 15:53:00
9:53 AM,78.1,28.0,16,29.86,10.0,Calm,Calm,-,N/A,,Clear,0,2012-05-11 16:53:00
10:53 AM,81.0,26.1,13,29.86,10.0,Variable,4.6,-,N/A,,Clear,0,2012-05-11 17:53:00
11:53 AM,84.0,25.0,12,29.86,10.0,Variable,3.5,-,N/A,,Clear,0,2012-05-11 18:53:00
12:53 PM,84.0,24.1,11,29.85,10.0,South,3.5,-,N/A,,Clear,170,2012-05-11 19:53:00
1:53 PM,87.1,23.0,10,29.83,10.0,Variable,3.5,-,N/A,,Clear,0,2012-05-11 20:53:00
2:53 PM,89.1,37.9,16,29.83,10.0,WSW,16.1,20.7,N/A,,Clear,250,2012-05-11 21:53:00
3:53 PM,87.1,36.0,16,29.82,10.0,WSW,17.3,-,N/A,,Clear,240,2012-05-11 22:53:00
4:53 PM,84.0,42.1,23,29.83,10.0,SW,16.1,-,N/A,,Clear,230,2012-05-11 23:53:00
5:53 PM,81.0,44.1,27,29.84,10.0,WSW,18.4,-,N/A,,Clear,250,2012-05-12 00:53:00
6:53 PM,77.0,45.0,32,29.87,10.0,WSW,11.5,20.7,N/A,,Clear,250,2012-05-12 01:53:00
7:53 PM,73.0,45.0,37,29.88,10.0,WSW,13.8,-,N/A,,Clear,240,2012-05-12 02:53:00
8:53 PM,70.0,39.9,33,29.89,10.0,WSW,15.0,-,N/A,,Clear,240,2012-05-12 03:53:00
9:53 PM,68.0,44.1,42,29.91,10.0,SW,15.0,-,N/A,,Clear,230,2012-05-12 04:53:00
10:53 PM,66.9,41.0,39,29.92,10.0,SSW,12.7,-,N/A,,Clear,210,2012-05-12 05:53:00
11:53 PM,66.9,39.9,37,29.93,10.0,SW,10.4,-,N/A,,Clear,220,2012-05-12 06:53:00